Weather History for Hartford, CT

Change the Weather History Date:

Monday, February 18, 2013

  Actual Average Record
Temperature  
Mean Temperature 24 °F -  
Max Temperature 33 °F 37 °F 63 °F (1981)
Min Temperature 16 °F 19 °F -5 °F (1979)
Degree Days  
Heating Degree Days 40    
Moisture  
Dew Point 2 °F    
Average Humidity 42    
Maximum Humidity 63    
Minimum Humidity 23    
Precipitation  
Precipitation 0.00 in - - ()
Sea Level Pressure  
Sea Level Pressure 30.10 in    
Wind  
Wind Speed 12 mph (WNW)    
Max Wind Speed 20 mph    
Max Gust Speed 32 mph    
Visibility 10 miles    
Events      
Averages and records for this station are not official NWS values.
T = Trace of Precipitation, MM = Missing Value Source: NWS Daily Summary

Daily Weather History Graph

Daily Weather History Graph

Search for Another Location

Airport:

Trip Planner

Search our weather history database for the weather conditions in past years. The results will help you decide how hot, cold, wet, or windy it might be!

Date:

Astronomy

Feb. 18, 2013 Rise Set
Actual Time 6:41 AM EST 5:27 PM EST
Civil Twilight 6:13 AM EST 5:56 PM EST
Nautical Twilight 5:40 AM EST 6:28 PM EST
Astronomical Twilight 5:08 AM EST 7:00 PM EST
Moon 11:09 AM EST (2/18) 1:21 AM EST (2/18)
Length of Visible Light 11h 43m
Length of Day
10h 46m
First Quarter, 58% of the Moon is Illuminated
Feb 18
First Quarter
Feb 25
Full
Mar 4
Last Quarter
Mar 11
New
Mar 19
First Quarter

Hourly Weather History & Observations

Time (EST) Temp. Windchill Dew Point Humidity Pressure Visibility Wind Dir Wind Speed Gust Speed Precip Events Conditions
12:53 AM 17.1 °F 1.5 °F 1.0 °F 50% 29.89 in 10.0 mi NW 17.3 mph 32.2 mph N/A   Clear
1:53 AM 16.0 °F -0.4 °F 1.9 °F 54% 29.93 in 10.0 mi WNW 18.4 mph 32.2 mph N/A   Clear
2:53 AM 16.0 °F 1.7 °F 1.9 °F 54% 29.94 in 10.0 mi NW 13.8 mph 27.6 mph N/A   Clear
3:53 AM 16.0 °F 3.6 °F 1.0 °F 52% 29.96 in 10.0 mi NW 10.4 mph 27.6 mph N/A   Clear
4:53 AM 16.0 °F 2.9 °F 1.0 °F 52% 30.01 in 10.0 mi WNW 11.5 mph 18.4 mph N/A   Clear
5:53 AM 16.0 °F 1.7 °F -0.0 °F 49% 30.04 in 10.0 mi NW 13.8 mph 21.9 mph N/A   Clear
7:53 AM 16.0 °F 5.3 °F -0.0 °F 49% 30.12 in 10.0 mi NW 8.1 mph 16.1 mph N/A   Clear
9:53 AM 21.0 °F 8.1 °F -0.9 °F 38% 30.13 in 10.0 mi NW 13.8 mph 21.9 mph N/A   Clear
10:53 AM 24.1 °F 9.8 °F -2.0 °F 32% 30.14 in 10.0 mi NW 19.6 mph 26.5 mph N/A   Clear
11:53 AM 25.0 °F 13.6 °F -0.0 °F 34% 30.15 in 10.0 mi WNW 12.7 mph 25.3 mph N/A   Clear
12:53 PM 28.9 °F 18.6 °F -0.9 °F 28% 30.14 in 10.0 mi West 12.7 mph 23.0 mph N/A   Clear
1:53 PM 30.0 °F 19.1 °F -0.9 °F 27% 30.13 in 10.0 mi NW 15.0 mph 26.5 mph N/A   Clear
2:53 PM 30.9 °F 22.2 °F -0.0 °F 27% 30.12 in 10.0 mi NW 10.4 mph 18.4 mph N/A   Clear
3:53 PM 33.1 °F 24.4 °F -0.9 °F 23% 30.13 in 10.0 mi West 11.5 mph 19.6 mph N/A   Clear
4:53 PM 32.0 °F 22.5 °F 1.0 °F 27% 30.14 in 10.0 mi WNW 12.7 mph 17.3 mph N/A   Clear
5:53 PM 30.9 °F 26.2 °F 1.0 °F 28% 30.16 in 10.0 mi WNW 4.6 mph - N/A   Clear
6:53 PM 30.0 °F 26.5 °F 3.0 °F 32% 30.17 in 10.0 mi NW 3.5 mph - N/A   Clear
7:53 PM 25.0 °F - 10.0 °F 53% 30.18 in 10.0 mi Calm Calm - N/A   Clear
8:53 PM 28.9 °F 25.2 °F 3.0 °F 33% 30.18 in 10.0 mi NW 3.5 mph - N/A   Clear
9:53 PM 21.9 °F - 10.0 °F 60% 30.20 in 10.0 mi Calm Calm - N/A   Clear
10:53 PM 23.0 °F 18.4 °F 10.9 °F 60% 30.19 in 10.0 mi South 3.5 mph - N/A   Clear
11:53 PM 23.0 °F - 12.0 °F 63% 30.20 in 10.0 mi Calm Calm - N/A   Clear